[[{"header":{"parameterUnit":"m.s-1","parameterCategory":1,"la1":30.2991,"la2":30.254,"lo1":-89.0895,"lo2":-89.0444,"dy":0.0017,"dx":0.0017,"nx":28,"ny":28,"refTime":"2024-06-09T21:00:00:Z","depth":0,"parameterNumber":2,"parameterNumberName":"U-component_of_WINDS"},"data":[0,0,0,0,0,0,0,0,0,0,0,0,0,0,0,0,0,0,0,0,0,0,0,0,0,0,0,0,0,0,0,0,0,0,0,0,0,0,0,0,0,0,0,0,0,0,0,0,0,0,0,0,0,0,0,0,0,0,0.1065,0.1065,0,0.11,0.11,0.11,0.1054,0.1052,0.105,0.1049,0.1096,0.1098,0.1101,0,0,0,0,0,0,0,0,0,0,0,0,0,0.0968,0.097,0.1065,0.1065,0.1066,0.11,0.11,0.1101,0.1054,0.1052,0.105,0.1048,0.1095,0.1098,0.1101,0,0,0,0,0,0,0,0,0,0,0,0,0,0.1007,0.097,0.1065,0.1046,0.1045,0.1099,0.11,0.1101,0.1055,0.1052,0.1049,0.1047,0.1093,0.1098,0.1102,0.1179,0,0,0.1115,0.1117,0,0,0,0,0,0,0,0,0.1005,0.1011,0.1049,0.1048,0.1046,0.1069,0.1083,0.1128,0.1055,0.1051,0.1049,0.1046,0.109,0.1094,0.1107,0.1182,0.1184,0.1115,0.1118,0.112,0.1121,0,0,0,0,0,0,0,0.1002,0.1009,0.1079,0.1049,0.1048,0.1039,0.1042,0.1091,0.1085,0.1051,0.1048,0.1052,0.1089,0.1103,0.1107,0.1184,0.1115,0.1119,0.1121,0.1123,0.1325,0.1328,0,0,0,0,0,0,0.1,0.1007,0.1078,0.108,0.1018,0.1043,0.1046,0.1065,0.1084,0.1084,0.1054,0.105,0.1097,0.1102,0.1109,0.1201,0.112,0.1124,0.1126,0.1323,0.1326,0.1329,0,0,0,0,0,0,0.0998,0.1007,0.1076,0.1043,0.1051,0.1047,0.1069,0.1067,0.1081,0.1086,0.1086,0.1069,0.1095,0.1103,0.1161,0.1202,0.1125,0.1129,0.1319,0.1324,0.1328,0.1387,0,0,0,0,0,0,0.0996,0.1007,0.1034,0.1043,0.1053,0.1126,0.1071,0.1069,0.1087,0.1081,0.11,0.1101,0.1093,0.1155,0.1166,0.1207,0.1133,0.1316,0.1321,0.1326,0.1382,0.1393,0.1403,0,0,0,0,0,0.0992,0.1052,0.1036,0.1044,0.1086,0.1128,0.1134,0.1121,0.109,0.1119,0.1123,0.11,0.1196,0.1162,0.1173,0.1216,0.1313,0.132,0.1326,0.1377,0.1391,0.1402,0,0,0,0,0,0,0.1052,0.1053,0.1035,0.1098,0.1113,0.112,0.1156,0.1136,0.1163,0.1157,0.1143,0.1148,0.1211,0.1219,0.1181,0.1292,0.125,0.1259,0.1285,0.1298,0.1308,0.1306,0.1136,0,0,0,0,0,0.1071,0.1102,0.1103,0.1159,0.1167,0.116,0.1178,0.1166,0.1183,0.119,0.1198,0.1217,0.1252,0.1275,0.1307,0.1382,0.1386,0.1417,0.1428,0.1436,0.1445,0.1486,0.15,0.135,0.135,0.135,0,0,0.1114,0.1118,0.1139,0.1171,0.1181,0.1216,0.1166,0.1206,0.1232,0.1197,0.1252,0.1258,0.128,0.1347,0.1377,0.1356,0.1487,0.1444,0.1451,0.1455,0.1494,0.1508,0.1521,0.1354,0.1353,0.1353,0,0,0.1209,0.1215,0.1262,0.1272,0.1286,0.1281,0.1293,0.1302,0.1304,0.1358,0.1332,0.1365,0.1425,0.1441,0.1457,0.1556,0.1537,0.1567,0.1623,0.1664,0.1676,0.1686,0.1723,0.1737,0.1575,0.1576,0.1576,0,0.1262,0.131,0.129,0.133,0.1346,0.1311,0.136,0.1372,0.1398,0.1411,0.1386,0.1459,0.1471,0.1541,0.1565,0.1579,0.1593,0.1566,0.1675,0.1685,0.1695,0.173,0.1744,0.1579,0.1579,0.1578,0.1578,0,0.1374,0.1409,0.1446,0.1467,0.1486,0.1532,0.1521,0.1543,0.153,0.1528,0.1585,0.1597,0.163,0.1646,0.1635,0.1716,0.1702,0.1676,0.1633,0.1713,0.1746,0.1759,0.1584,0.1583,0.1582,0.1581,0,0,0.1511,0.1518,0.1532,0.1541,0.1554,0.1581,0.1625,0.1654,0.1675,0.1694,0.1732,0.1782,0.1757,0.1775,0.1765,0.18,0.188,0.177,0.1771,0.1792,0.1972,0.1993,0.2009,0.1866,0.1869,0.1871,0.1971,0,0.1607,0.1679,0.1662,0.1735,0.1767,0.1734,0.1772,0.1786,0.1785,0.1815,0.1816,0.1852,0.1816,0.1826,0.1859,0.1863,0.1917,0.1856,0.1906,0.1908,0.1903,0.2026,0.2048,0.2142,0.1983,0.1986,0.1987,0,0.173,0.1749,0.1824,0.183,0.1843,0.1878,0.1903,0.1931,0.1946,0.1943,0.1962,0.1945,0.1992,0.1946,0.2012,0.197,0.199,0.1995,0.1998,0.2005,0.1954,0.2038,0.2172,0.2187,0.2007,0.2005,0.2004,0,0.1824,0.1869,0.1919,0.1928,0.1936,0.1961,0.1967,0.1978,0.1997,0.202,0.2032,0.2062,0.2079,0.2103,0.2096,0.2063,0.2164,0.2117,0.2166,0.2166,0.2191,0.219,0.2332,0.22,0.22,0.2199,0.2199,0,0.1935,0.1983,0.1961,0.1993,0.2046,0.2026,0.208,0.2082,0.2093,0.2126,0.21,0.2133,0.2119,0.2152,0.2146,0.2203,0.221,0.2212,0.221,0.2215,0.2216,0.223,0.2224,0.2203,0.2202,0.2201,0.2201,0,0.205,0.2037,0.209,0.2092,0.2094,0.2133,0.2136,0.2167,0.2163,0.2206,0.2215,0.2211,0.2248,0.2241,0.2284,0.228,0.2351,0.234,0.2345,0.2343,0.2392,0.2389,0.2551,0.2572,0.2424,0.2425,0.2426,0,0.2122,0.2158,0.2162,0.2181,0.2187,0.2217,0.2235,0.2217,0.2237,0.2256,0.2285,0.2319,0.2345,0.2406,0.2409,0.2442,0.2433,0.2487,0.2438,0.2442,0.2436,0.2435,0.244,0.2499,0.25,0.2502,0.2503,0,0.2253,0.2244,0.2268,0.2291,0.2311,0.2329,0.2345,0.2362,0.2346,0.237,0.2405,0.2425,0.2466,0.2501,0.2531,0.254,0.252,0.2517,0.2531,0.2538,0.2539,0.2541,0.2374,0.2515,0.2513,0.2513,0.2512,0.2511,0.235,0.238,0.2387,0.2416,0.2424,0.2439,0.2468,0.2466,0.2494,0.2523,0.2511,0.2552,0.2567,0.2604,0.2616,0.265,0.2631,0.265,0.2655,0.2661,0.2667,0.2531,0.2656,0.2655,0.2655,0.2655,0.2654,0,0.2481,0.2483,0.2509,0.2529,0.2552,0.2526,0.2541,0.2564,0.2598,0.2612,0.2637,0.2678,0.2711,0.2716,0.2748,0.2774,0.2766,0.2784,0.2783,0.2786,0.2682,0.2668,0.279,0.279,0.279,0.279,0.279,0.279,0.2552,0.2601,0.2593,0.2647,0.265,0.2687,0.2698,0.2713,0.2723,0.2769,0.2795,0.2795,0.2806,0.2838,0.2869,0.2869,0.2884,0.2905,0.2903,0.2807,0.2793,0.278,0.2767,0.2908,0.2908,0.3004,0.3005,0.3006]},{"header":{"parameterUnit":"m.s-1","parameterCategory":1,"la1":30.2991,"la2":30.254,"lo1":-89.0895,"lo2":-89.0444,"dy":0.0017,"dx":0.0017,"nx":28,"ny":28,"refTime":"2024-06-09T21:00:00:Z","depth":0,"parameterNumber":3,"parameterNumberName":"V-component_of_WINDS"},"data":[0,0,0,0,0,0,0,0,0,0,0,0,0,0,0,0,0,0,0,0,0,0,0,0,0,0,0,0,0,0,0,0,0,0,0,0,0,0,0,0,0,0,0,0,0,0,0,0,0,0,0,0,0,0,0,0,0,0,-0.4491,-0.449,0,-0.4346,-0.4345,-0.4343,-0.4349,-0.4351,-0.4353,-0.4355,-0.4205,-0.4199,-0.4193,0,0,0,0,0,0,0,0,0,0,0,0,0,-0.4772,-0.4767,-0.4492,-0.449,-0.4488,-0.4347,-0.4345,-0.4343,-0.4349,-0.4351,-0.4353,-0.4356,-0.4207,-0.42,-0.4193,0,0,0,0,0,0,0,0,0,0,0,0,0,-0.4641,-0.4765,-0.4492,-0.4474,-0.4471,-0.4347,-0.4345,-0.4342,-0.4348,-0.4351,-0.4354,-0.4357,-0.4209,-0.42,-0.4192,-0.4076,0,0,-0.4165,-0.4161,0,0,0,0,0,0,0,0,-0.4648,-0.463,-0.4478,-0.4475,-0.4471,-0.4369,-0.4388,-0.4253,-0.4347,-0.4395,-0.4355,-0.4358,-0.4257,-0.4244,-0.421,-0.4069,-0.4062,-0.4164,-0.4159,-0.4155,-0.4152,0,0,0,0,0,0,0,-0.4657,-0.4637,-0.4434,-0.4476,-0.4472,-0.4472,-0.4457,-0.4363,-0.431,-0.4391,-0.4391,-0.4374,-0.4256,-0.4219,-0.4207,-0.406,-0.4164,-0.4156,-0.4151,-0.4147,-0.3816,-0.3813,0,0,0,0,0,0,-0.467,-0.4644,-0.4439,-0.443,-0.4569,-0.4465,-0.4448,-0.4399,-0.4311,-0.4301,-0.4371,-0.4374,-0.4232,-0.4217,-0.4202,-0.406,-0.4155,-0.4147,-0.4141,-0.382,-0.3816,-0.3812,0,0,0,0,0,0,-0.4676,-0.4652,-0.4445,-0.4537,-0.4511,-0.4457,-0.4401,-0.4394,-0.4357,-0.4297,-0.4287,-0.4343,-0.4234,-0.4214,-0.4107,-0.4055,-0.4143,-0.4135,-0.3824,-0.3818,-0.3814,-0.3776,0,0,0,0,0,0,-0.4684,-0.4654,-0.461,-0.4536,-0.4506,-0.4353,-0.4398,-0.4389,-0.4342,-0.4345,-0.4268,-0.4258,-0.4235,-0.412,-0.4098,-0.4044,-0.4128,-0.3828,-0.3821,-0.3815,-0.3781,-0.377,-0.376,0,0,0,0,0,-0.4694,-0.4605,-0.4608,-0.4583,-0.4449,-0.435,-0.4332,-0.4308,-0.4338,-0.4293,-0.4254,-0.4261,-0.4064,-0.4109,-0.4085,-0.4027,-0.3831,-0.3823,-0.3816,-0.3786,-0.3772,-0.376,0,0,0,0,0,0,-0.4673,-0.4595,-0.4597,-0.4481,-0.4422,-0.4351,-0.4293,-0.4294,-0.4225,-0.423,-0.4203,-0.4185,-0.4078,-0.4042,-0.4094,-0.391,-0.3952,-0.3938,-0.3938,-0.3924,-0.3913,-0.3924,-0.412,0,0,0,0,0,-0.4655,-0.4582,-0.4517,-0.442,-0.4391,-0.4347,-0.4303,-0.4289,-0.4227,-0.4202,-0.4155,-0.4094,-0.4018,-0.3969,-0.3896,-0.3776,-0.3759,-0.3725,-0.3714,-0.3705,-0.3694,-0.3627,-0.3611,-0.3786,-0.3786,-0.3786,0,0,-0.4617,-0.4565,-0.452,-0.4415,-0.4368,-0.4291,-0.4326,-0.4244,-0.4187,-0.4189,-0.4085,-0.4049,-0.3979,-0.3865,-0.3812,-0.3831,-0.3642,-0.3695,-0.3689,-0.3682,-0.3618,-0.3601,-0.3587,-0.3781,-0.3782,-0.3782,0,0,-0.4508,-0.4462,-0.4376,-0.4328,-0.4257,-0.4228,-0.4208,-0.4136,-0.4112,-0.4008,-0.4008,-0.394,-0.381,-0.376,-0.3718,-0.359,-0.3594,-0.3567,-0.3511,-0.3446,-0.3432,-0.342,-0.3374,-0.3358,-0.3556,-0.3556,-0.3556,0,-0.4469,-0.4355,-0.4332,-0.4249,-0.4203,-0.4202,-0.4115,-0.4069,-0.3977,-0.3945,-0.3968,-0.3805,-0.3758,-0.3632,-0.3601,-0.3567,-0.3542,-0.3576,-0.3436,-0.3424,-0.3412,-0.3367,-0.335,-0.3554,-0.3554,-0.3554,-0.3554,0,-0.431,-0.4231,-0.4171,-0.4082,-0.4029,-0.3945,-0.3908,-0.3857,-0.3848,-0.3817,-0.371,-0.3654,-0.357,-0.3539,-0.3529,-0.3411,-0.3425,-0.3443,-0.3484,-0.3393,-0.3351,-0.3333,-0.355,-0.3551,-0.3551,-0.3552,0,0,-0.4184,-0.4084,-0.4062,-0.4022,-0.3943,-0.3881,-0.3796,-0.3714,-0.367,-0.3607,-0.3535,-0.3425,-0.3441,-0.3393,-0.3378,-0.3321,-0.3223,-0.3345,-0.3343,-0.3324,-0.3089,-0.3075,-0.3056,-0.3225,-0.3222,-0.3219,-0.3094,0,-0.4066,-0.3916,-0.3893,-0.3761,-0.3687,-0.3686,-0.3612,-0.3555,-0.3524,-0.3456,-0.3422,-0.3344,-0.3371,-0.3342,-0.3286,-0.3247,-0.3175,-0.3256,-0.3157,-0.3154,-0.3174,-0.3034,-0.302,-0.2904,-0.3078,-0.3075,-0.3073,0,-0.3909,-0.3842,-0.3702,-0.3633,-0.3601,-0.3535,-0.3458,-0.3394,-0.3329,-0.331,-0.3257,-0.3248,-0.316,-0.3206,-0.3083,-0.3138,-0.3097,-0.3071,-0.3066,-0.3055,-0.3107,-0.3019,-0.2867,-0.285,-0.3047,-0.3049,-0.3051,0,-0.3829,-0.3704,-0.3605,-0.357,-0.3487,-0.3441,-0.3404,-0.3343,-0.3295,-0.3227,-0.3195,-0.3118,-0.3076,-0.3016,-0.2987,-0.3023,-0.2866,-0.291,-0.2848,-0.2848,-0.2814,-0.2816,-0.2653,-0.2789,-0.2789,-0.2789,-0.279,0,-0.37,-0.3615,-0.3568,-0.3506,-0.3411,-0.3385,-0.329,-0.3255,-0.32,-0.3131,-0.3125,-0.3061,-0.3027,-0.2957,-0.2934,-0.2835,-0.2816,-0.2798,-0.2793,-0.2798,-0.28,-0.277,-0.2776,-0.2785,-0.2786,-0.2786,-0.2787,0,-0.3595,-0.356,-0.3451,-0.3382,-0.3362,-0.3295,-0.3235,-0.3175,-0.3144,-0.3057,-0.3035,-0.2987,-0.2905,-0.287,-0.2769,-0.2753,-0.264,-0.2641,-0.2662,-0.266,-0.2599,-0.2605,-0.2409,-0.2382,-0.2537,-0.2536,-0.2535,0,-0.3514,-0.3449,-0.3372,-0.3326,-0.3288,-0.3213,-0.3164,-0.3136,-0.3086,-0.3007,-0.2956,-0.2874,-0.2806,-0.2675,-0.263,-0.2553,-0.2551,-0.2488,-0.254,-0.2547,-0.2549,-0.2553,-0.2546,-0.2479,-0.2477,-0.2476,-0.2475,0,-0.3375,-0.3361,-0.3291,-0.3214,-0.3156,-0.3095,-0.3035,-0.2997,-0.2959,-0.2903,-0.2818,-0.2766,-0.2663,-0.2581,-0.2501,-0.2462,-0.2461,-0.2459,-0.244,-0.2444,-0.2459,-0.2449,-0.2635,-0.2463,-0.2465,-0.2465,-0.2466,-0.2466,-0.3278,-0.322,-0.3157,-0.3079,-0.3031,-0.2975,-0.2915,-0.2877,-0.2806,-0.272,-0.2708,-0.2617,-0.2554,-0.2447,-0.2405,-0.2334,-0.235,-0.2323,-0.2316,-0.2309,-0.2305,-0.2471,-0.2319,-0.232,-0.232,-0.232,-0.232,0,-0.3138,-0.3097,-0.3026,-0.2942,-0.288,-0.2886,-0.282,-0.2768,-0.2689,-0.263,-0.2564,-0.2467,-0.2387,-0.2337,-0.2256,-0.2209,-0.2206,-0.2188,-0.2191,-0.2182,-0.2296,-0.2319,-0.2192,-0.2192,-0.2192,-0.2192,-0.2192,-0.2192,-0.3057,-0.2958,-0.2936,-0.2813,-0.2773,-0.2685,-0.2646,-0.2594,-0.2547,-0.2439,-0.2373,-0.2341,-0.2285,-0.2201,-0.2128,-0.2115,-0.2085,-0.2066,-0.2054,-0.2161,-0.2174,-0.2187,-0.2209,-0.206,-0.206,-0.1946,-0.1945,-0.1944]}]]